Regional Weather Roundup
Issued by NWS

Home | Current Version | Previous Version | Text Only | Print | Product List | Glossary On
Versions: 1 2 3 4 5 6 7 8 9 10 11 12 13 14 15 16 17 18 19 20 21 22 23 24 25 26 27 28 29 30 31 32 33 34 35 36 37 38 39 40 41 42 43 44 45 46 47 48 49 50
000
ASUS43 KLSX 090410
RWRMO

WEATHER SUMMARY FOR MISSOURI
NATIONAL WEATHER SERVICE SPRINGFIELD MO
1000 PM CST THU DEC 08 2016

NOTE: "FAIR" INDICATES FEW OR NO CLOUDS BELOW 12,000 FEET WITH NO
       SIGNIFICANT WEATHER AND/OR OBSTRUCTIONS TO VISIBILITY.
       CURRENT SKY AND/OR WEATHER CONDITIONS ARE NOT AVAILABLE FOR
       CHILLICOTHE AND FARMINGTON.

MOZ001>031-035>038-043-044-053-054-090500-
...NORTHERN AND WESTERN MISSOURI...

CITY           SKY/WX    TMP DP  RH WIND       PRES   REMARKS
KANSAS CTY INT CLEAR     17   8  67 W5        30.64R WCI  10
KANSAS C DTWN  CLEAR     21  10  62 W3        30.66S
LEE`S SUMMIT   CLEAR     19   9  65 NW5       30.64S WCI  12
ST JOSEPH      CLEAR     17   9  70 CALM      30.66R
CHILLICOTHE      N/A     18  10  71 NW5       30.64S WCI  11
KIRKSVILLE     CLEAR     18  10  71 NW8       30.58S WCI   8

$$
MOZ066>068-077>081-088>096-101>105-090500-
...SOUTHWEST MISSOURI...

CITY           SKY/WX    TMP DP  RH WIND       PRES   REMARKS
SPRINGFIELD    CLEAR     18  12  77 N5        30.60S WCI  11
JOPLIN         CLEAR     19  13  77 CALM      30.66R
BRANSON        CLEAR     21  12  68 NW8       30.61S WCI  12

$$
MOZ032>034-039>042-045>050-055>058-069>072-090500-
...CENTRAL MISSOURI...

CITY           SKY/WX    TMP DP  RH WIND       PRES   REMARKS
COLUMBIA       CLEAR     19  11  70 W8        30.60S WCI   9
JEFFERSON CITY CLEAR     20  11  68 NW6       30.64S WCI  12
ROLLA          CLEAR     19  11  70 NW8       30.57S WCI   9
SEDALIA        CLEAR     19  11  70 NW7       30.64S WCI  10
WHITEMAN AFB   PTCLDY    18  11  74 W5        30.63S WCI  11
WARRENSBURG    CLEAR     19  10  68 CALM      30.65S
OSAGE BEACH    CLEAR     20  12  71 NW5       30.63S WCI  13

$$
MOZ051-052-059>065-090500-
...EAST CENTRAL MISSOURI...

CITY           SKY/WX    TMP DP  RH WIND       PRES   REMARKS
ST LOUIS INTL  PTCLDY    23  12  62 W8        30.59R WCI  14
SPIRIT OF STL  CLEAR     22  13  68 W8        30.60R WCI  12
ST CHARLES     CLEAR     24  14  65 NW10      30.59R WCI  14

$$
MOZ072>076-082>087-097>100-106>115-090500-
...SOUTH CENTRAL AND SOUTHEAST MISSOURI...

CITY           SKY/WX    TMP DP  RH WIND       PRES   REMARKS
CAPE GIRARDEAU CLEAR     26  13  57 N12       30.59R WCI  16
FARMINGTON     CLEAR     22  13  68 NW8       30.57R WCI  12
POPLAR BLUFF   CLEAR     28  15  58 N10G21    30.59R WCI  19
WEST PLAINS    CLEAR     22  13  68 NW6       30.59R WCI  14

$$




USA.gov is the U.S. government's official web portal to all federal, state and local government web resources and services.